• în Republica Moldova
  • Lista ţărilor
  • Pe 7 zile
  • Temperatura apei
  • Hartă satelitară
  • Meteo pe hartă
  • Widget-uri
  • user-avatar
    Intrare

    Meteo pe oră la Brisbane

    Astăzi, 19 Iunie, Marţi

    Timp Temperatura Precipitaţii Vânt Presiune Umiditate
    00:00 +10°C° 0 mm 5 m/s 762 mmHg 63%
    01:00 +10°C° 0 mm 6 m/s 762 mmHg 63%
    02:00 +9°C° 0 mm 5 m/s 762 mmHg 63%
    03:00 +9°C° 0 mm 5 m/s 762 mmHg 64%
    04:00 +8°C° 0 mm 4 m/s 762 mmHg 66%
    05:00 +8°C° 0 mm 4 m/s 762 mmHg 67%
    06:00 +8°C° 0 mm 4 m/s 762 mmHg 67%
    07:00 +8°C° 0 mm 5 m/s 762 mmHg 68%
    08:00 +10°C° 0 mm 5 m/s 762 mmHg 59%
    09:00 +13°C° 0 mm 5 m/s 762 mmHg 50%
    10:00 +17°C° 0 mm 4 m/s 762 mmHg 39%
    11:00 +17°C° 0 mm 5 m/s 762 mmHg 35%
    12:00 +19°C° 0 mm 5 m/s 761 mmHg 31%
    13:00 +20°C° 0 mm 5 m/s 761 mmHg 27%
    14:00 +20°C° 0 mm 5 m/s 761 mmHg 28%
    15:00 +20°C° 0 mm 5 m/s 761 mmHg 30%
    16:00 +19°C° 0 mm 4 m/s 760 mmHg 31%
    17:00 +17°C° 0 mm 4 m/s 761 mmHg 36%
    18:00 +15°C° 0 mm 5 m/s 762 mmHg 41%
    19:00 +14°C° 0 mm 5 m/s 762 mmHg 46%
    20:00 +13°C° 0 mm 5 m/s 762 mmHg 50%
    21:00 +13°C° 0 mm 5 m/s 763 mmHg 53%
    22:00 +11°C° 0 mm 4 m/s 763 mmHg 57%
    23:00 +11°C° 0 mm 4 m/s 763 mmHg 59%

    Mâine, 20 Iunie, Miercuri

    Timp Temperatura Precipitaţii Vânt Presiune Umiditate
    00:00 +10°C° 0 mm 4 m/s 763 mmHg 61%
    01:00 +10°C° 0 mm 4 m/s 763 mmHg 63%
    02:00 +10°C° 0 mm 4 m/s 763 mmHg 65%
    03:00 +8°C° 0 mm 4 m/s 763 mmHg 67%
    04:00 +8°C° 0 mm 4 m/s 764 mmHg 68%
    05:00 +8°C° 0 mm 4 m/s 764 mmHg 71%
    06:00 +8°C° 0 mm 4 m/s 764 mmHg 73%
    07:00 +8°C° 0 mm 4 m/s 764 mmHg 75%
    08:00 +12°C° 0 mm 4 m/s 764 mmHg 69%
    09:00 +14°C° 0 mm 5 m/s 764 mmHg 63%
    10:00 +17°C° 0 mm 5 m/s 765 mmHg 57%
    11:00 +19°C° 0 mm 5 m/s 764 mmHg 54%
    12:00 +20°C° 0 mm 5 m/s 764 mmHg 52%
    13:00 +21°C° 0 mm 6 m/s 764 mmHg 50%
    14:00 +21°C° 0 mm 5 m/s 764 mmHg 52%
    15:00 +20°C° 0 mm 5 m/s 764 mmHg 53%
    16:00 +20°C° 0 mm 5 m/s 764 mmHg 55%
    17:00 +17°C° 0 mm 5 m/s 764 mmHg 61%
    18:00 +16°C° 0 mm 5 m/s 765 mmHg 67%
    19:00 +14°C° 0 mm 4 m/s 765 mmHg 73%
    20:00 +14°C° 0 mm 4 m/s 765 mmHg 75%
    21:00 +13°C° 0 mm 4 m/s 766 mmHg 77%
    22:00 +13°C° 0 mm 4 m/s 766 mmHg 79%
    23:00 +12°C° 0 mm 4 m/s 766 mmHg 79%

    Poimâine, 21 Iunie, Joi

    Timp Temperatura Precipitaţii Vânt Presiune Umiditate
    00:00 +12°C° 0 mm 4 m/s 766 mmHg 79%
    01:00 +12°C° 0 mm 4 m/s 766 mmHg 79%
    02:00 +12°C° 0 mm 4 m/s 765 mmHg 79%
    03:00 +12°C° 0 mm 4 m/s 765 mmHg 79%
    04:00 +12°C° 0 mm 4 m/s 765 mmHg 79%
    05:00 +11°C° 0 mm 4 m/s 766 mmHg 80%
    06:00 +11°C° 0 mm 4 m/s 766 mmHg 82%
    07:00 +11°C° 0 mm 4 m/s 766 mmHg 83%
    08:00 +13°C° 0 mm 4 m/s 766 mmHg 75%
    09:00 +17°C° 0 mm 4 m/s 767 mmHg 67%
    10:00 +19°C° 0 mm 4 m/s 767 mmHg 59%
    11:00 +20°C° 0 mm 4 m/s 766 mmHg 56%
    12:00 +21°C° 0 mm 4 m/s 766 mmHg 53%
    13:00 +22°C° 0 mm 3 m/s 765 mmHg 49%
    14:00 +22°C° 0,1 mm 3 m/s 765 mmHg 51%
    15:00 +21°C° 0,1 mm 3 m/s 765 mmHg 54%
    16:00 +21°C° 0,1 mm 3 m/s 765 mmHg 56%
    17:00 +19°C° 0 mm 3 m/s 765 mmHg 65%
    18:00 +18°C° 0 mm 3 m/s 766 mmHg 73%
    19:00 +16°C° 0 mm 3 m/s 766 mmHg 81%
    20:00 +14°C° 0 mm 3 m/s 767 mmHg 83%
    21:00 +14°C° 0 mm 3 m/s 767 mmHg 85%
    22:00 +13°C° 0 mm 3 m/s 768 mmHg 87%
    23:00 +13°C° 0 mm 3 m/s 767 mmHg 88%

    22 Iunie, Vineri

    Timp Temperatura Precipitaţii Vânt Presiune Umiditate
    00:00 +12°C° 0 mm 3 m/s 767 mmHg 89%
    01:00 +12°C° 0 mm 3 m/s 767 mmHg 90%
    02:00 +12°C° 0,1 mm 3 m/s 767 mmHg 91%
    03:00 +11°C° 0,1 mm 3 m/s 767 mmHg 91%
    04:00 +11°C° 0,1 mm 3 m/s 767 mmHg 92%
    05:00 +11°C° 0 mm 3 m/s 767 mmHg 92%
    06:00 +11°C° 0 mm 3 m/s 767 mmHg 92%
    07:00 +11°C° 0 mm 3 m/s 768 mmHg 92%
    08:00 +13°C° 0 mm 3 m/s 768 mmHg 82%
    09:00 +15°C° 0 mm 4 m/s 768 mmHg 72%
    10:00 +19°C° 0 mm 4 m/s 768 mmHg 62%
    11:00 +20°C° 0 mm 4 m/s 767 mmHg 57%
    12:00 +21°C° 0 mm 4 m/s 767 mmHg 53%
    13:00 +22°C° 0 mm 4 m/s 766 mmHg 48%
    14:00 +22°C° 0 mm 4 m/s 766 mmHg 50%
    15:00 +21°C° 0 mm 4 m/s 766 mmHg 52%
    16:00 +21°C° 0 mm 4 m/s 766 mmHg 54%
    17:00 +19°C° 0 mm 4 m/s 766 mmHg 62%
    18:00 +18°C° 0 mm 4 m/s 767 mmHg 71%
    19:00 +15°C° 0 mm 4 m/s 767 mmHg 79%
    20:00 +16°C° 0 mm 3 m/s 768 mmHg 82%
    21:00 +14°C° 0 mm 3 m/s 768 mmHg 84%
    22:00 +13°C° 0 mm 3 m/s 768 mmHg 87%
    23:00 +13°C° 0,1 mm 3 m/s 768 mmHg 87%

    23 Iunie, Sâmbătă

    Timp Temperatura Precipitaţii Vânt Presiune Umiditate
    00:00 +13°C° 0,1 mm 3 m/s 768 mmHg 88%
    01:00 +12°C° 0,1 mm 3 m/s 767 mmHg 89%
    02:00 +12°C° 0,1 mm 3 m/s 767 mmHg 89%
    03:00 +12°C° 0,1 mm 3 m/s 767 mmHg 90%
    04:00 +11°C° 0,1 mm 3 m/s 767 mmHg 90%
    05:00 +11°C° 0 mm 3 m/s 767 mmHg 90%
    06:00 +11°C° 0 mm 3 m/s 768 mmHg 91%
    07:00 +11°C° 0 mm 3 m/s 768 mmHg 91%
    08:00 +13°C° 0 mm 3 m/s 768 mmHg 80%
    09:00 +17°C° 0 mm 3 m/s 768 mmHg 69%
    10:00 +19°C° 0 mm 3 m/s 768 mmHg 58%
    11:00 +20°C° 0 mm 3 m/s 767 mmHg 52%
    12:00 +21°C° 0 mm 2 m/s 767 mmHg 46%
    13:00 +24°C° 0 mm 2 m/s 766 mmHg 40%
    14:00 +23°C° 0 mm 2 m/s 766 mmHg 42%
    15:00 +23°C° 0 mm 2 m/s 766 mmHg 43%
    16:00 +21°C° 0 mm 2 m/s 765 mmHg 45%
    17:00 +20°C° 0 mm 2 m/s 766 mmHg 54%
    18:00 +18°C° 0 mm 2 m/s 766 mmHg 63%
    19:00 +16°C° 0 mm 2 m/s 767 mmHg 72%
    20:00 +16°C° 0 mm 2 m/s 767 mmHg 76%
    21:00 +15°C° 0 mm 2 m/s 767 mmHg 79%
    22:00 +14°C° 0 mm 1 m/s 767 mmHg 83%
    23:00 +14°C° 0 mm 2 m/s 767 mmHg 85%

    24 Iunie, Duminică

    Timp Temperatura Precipitaţii Vânt Presiune Umiditate
    00:00 +14°C° 0 mm 2 m/s 767 mmHg 86%
    01:00 +13°C° 0 mm 2 m/s 767 mmHg 88%
    02:00 +13°C° 0 mm 2 m/s 767 mmHg 88%
    03:00 +13°C° 0 mm 2 m/s 767 mmHg 88%
    04:00 +12°C° 0 mm 2 m/s 767 mmHg 89%
    05:00 +12°C° 0 mm 2 m/s 767 mmHg 88%
    06:00 +12°C° 0 mm 2 m/s 767 mmHg 87%
    07:00 +12°C° 0 mm 2 m/s 768 mmHg 86%
    08:00 +14°C° 0 mm 2 m/s 768 mmHg 75%
    09:00 +17°C° 0 mm 2 m/s 768 mmHg 64%
    10:00 +20°C° 0 mm 2 m/s 768 mmHg 53%
    11:00 +21°C° 0 mm 2 m/s 767 mmHg 49%
    12:00 +22°C° 0 mm 3 m/s 766 mmHg 45%
    13:00 +24°C° 0 mm 3 m/s 766 mmHg 40%
    14:00 +22°C° 0 mm 3 m/s 766 mmHg 43%
    15:00 +21°C° 0 mm 3 m/s 765 mmHg 46%
    16:00 +21°C° 0 mm 4 m/s 765 mmHg 49%
    17:00 +19°C° 0 mm 4 m/s 766 mmHg 58%
    18:00 +18°C° 0 mm 3 m/s 766 mmHg 67%
    19:00 +16°C° 0 mm 3 m/s 767 mmHg 76%
    20:00 +14°C° 0,1 mm 3 m/s 767 mmHg 79%
    21:00 +14°C° 0,1 mm 3 m/s 767 mmHg 82%
    22:00 +14°C° 0,1 mm 3 m/s 767 mmHg 86%
    23:00 +14°C° 0,1 mm 2 m/s 767 mmHg 86%
    Arată mai mult